CW4115 Weather Reports


Display with metric or nautical units.
time (UTC)temp
F
wind
direction
speed
MPH
gust
MPH
rain 1hr
in
rain 24hr
in
rain mn
in
humidity
%
barometer
mb
20260506230344 74 44 2.0 10.0 0.00 0.00 0.00 55 1015.7
20260506223320 75 5 3.0 10.0 0.00 0.00 0.00 55 1016.1
20260506220343 75 43 2.0 6.0 0.00 0.00 0.00 53 1016.2
20260506213405 75 292 0.0 5.0 0.00 0.00 0.00 53 1016.7
20260506210358 73 46 2.0 9.0 0.00 0.00 0.00 57 1016.8
20260506203335 72 102 3.0 7.0 0.00 0.00 0.00 55 1017.2
20260506200352 71 259 4.0 8.0 0.00 0.00 0.00 58 1017.3
20260506193352 70 315 1.0 7.0 0.00 0.00 0.00 60 1017.7
20260506190335 69 281 1.0 4.0 0.00 0.00 0.00 61 1017.8
20260506183327 66 360 2.0 4.0 0.00 0.00 0.00 65 1018.2
20260506180324 66 13 3.0 7.0 0.00 0.00 0.00 65 1018.2
20260506173346 64 288 2.0 5.0 0.00 0.00 0.00 70 1018.3
20260506170333 63 282 2.0 5.0 0.00 0.00 0.00 72 1018.3
20260506163338 61 332 1.0 4.0 0.00 0.00 0.00 75 1018.3
20260506160329 61 360 1.0 4.0 0.00 0.00 0.00 75 1018.3
20260506153345 59 254 0.0 4.0 0.00 0.00 0.00 79 1018.3
20260506150359 58 360 1.0 4.0 0.00 0.00 0.00 80 1018.3
20260506143337 57 360 0.0 0.0 0.00 0.00 0.00 80 1018.2
20260506140324 57 360 0.0 2.0 0.00 0.00 0.00 81 1017.9
20260506133328 57 360 0.0 0.0 0.00 0.00 0.00 81 1017.4
20260506130324 57 360 0.0 1.0 0.00 0.00 0.00 81 1017.2
20260506123325 57 360 0.0 0.0 0.00 0.00 0.00 80 1017.2
20260506120345 57 360 1.0 2.0 0.00 0.00 0.00 80 1016.9
20260506113404 57 360 0.0 0.0 0.00 0.00 0.00 80 1016.7
20260506110337 57 360 0.0 0.0 0.00 0.00 0.00 80 1016.7
20260506103342 58 360 0.0 3.0 0.00 0.00 0.00 80 1016.6
20260506100337 58 360 0.0 0.0 0.00 0.00 0.00 80 1016.6
20260506093340 58 360 0.0 0.0 0.00 0.00 0.00 80 1016.7
20260506090336 58 360 0.0 2.0 0.00 0.00 0.00 80 1016.6
20260506083343 58 360 0.0 1.0 0.00 0.00 0.00 79 1016.7
20260506080330 58 360 1.0 4.0 0.00 0.00 0.00 79 1016.6
20260506073331 58 360 2.0 5.0 0.00 0.00 0.00 79 1016.3
20260506070341 58 16 1.0 4.0 0.00 0.00 0.00 78 1016.2
20260506060333 59 355 4.0 7.0 0.00 0.00 0.00 77 1015.7
20260506050326 60 360 1.0 3.0 0.00 0.00 0.00 73 1015.3
20260506043343 60 360 0.0 2.0 0.00 0.00 0.00 71 1015.1
20260506040333 60 360 1.0 3.0 0.00 0.00 0.00 71 1014.7
20260506033331 60 360 0.0 1.0 0.00 0.00 0.00 72 1014.2
20260506030337 60 360 0.0 1.0 0.00 0.00 0.00 72 1014.0
20260506023341 60 355 0.0 5.0 0.00 0.00 0.00 72 1013.7
20260506020336 61 277 0.0 1.0 0.00 0.00 0.00 72 1013.6
20260506013341 61 269 0.0 3.0 0.00 0.00 0.00 71 1013.6
20260506010319 62 227 0.0 3.0 0.00 0.00 0.00 69 1013.6
20260506003344 62 250 0.0 3.0 0.00 0.00 0.00 69 1013.5
20260506000334 62 238 0.0 2.0 0.00 0.00 0.00 68 1013.1
20260505233335 62 232 1.0 5.0 0.00 0.00 0.00 68 1013.4